Total_Precipitation_Accumulation
1.60 1.73 1.67 1.55 1.48 1.53 1.42 1.22 1.08 1.11 1.09 0.94 0.80 0.78 0.81 0.83 0.78 0.82 0.95 0.87 0.87 1.05 1.34 1.51 1.56 1.46 1.39 1.38 1.36 1.27 1.13 1.02 0.91 0.80 0.67 0.58 0.53 0.53 0.54 0.55 0.55 0.53 0.52
1.99 2.11 2.09 1.94 1.76 1.78 1.70 1.56 1.44 1.44 1.36 1.31 1.20 1.06 0.95 1.05 1.02 0.98 1.09 1.10 1.04 1.10 1.38 1.72 1.87 1.80 1.70 1.66 1.54 1.43 1.36 1.29 1.20 1.10 0.97 0.81 0.71 0.65 0.65 0.64 0.64 0.62 0.57
2.37 2.37 2.38 2.19 2.04 2.03 2.06 1.97 1.84 1.77 1.58 1.45 1.38 1.30 1.23 1.16 1.15 1.15 1.34 1.57 1.45 1.41 1.50 1.57 1.68 1.77 1.86 1.96 1.93 1.79 1.70 1.56 1.46 1.41 1.32 1.17 1.02 0.90 0.83 0.79 0.77 0.73 0.68
2.54 2.63 2.60 2.46 2.29 2.18 2.34 2.44 2.31 2.18 1.99 1.90 1.81 1.66 1.47 1.42 1.43 1.55 1.66 1.81 1.93 1.82 1.77 1.60 1.50 1.59 1.80 2.00 2.08 2.05 1.90 1.73 1.62 1.59 1.55 1.47 1.29 1.15 1.03 0.98 0.96 0.89 0.81
2.94 2.94 2.84 2.81 2.76 2.75 2.74 2.59 2.58 2.45 2.44 2.33 1.99 1.85 1.64 1.59 1.65 1.67 1.79 1.85 1.94 1.92 1.87 1.67 1.53 1.51 1.65 1.93 2.05 2.18 2.15 2.04 1.92 1.77 1.66 1.62 1.52 1.37 1.19 1.10 1.06 1.01 0.93
3.38 3.44 3.36 3.27 3.23 3.17 2.99 2.94 2.89 2.71 2.54 2.41 2.07 1.88 1.72 1.63 1.59 1.62 1.64 1.60 1.57 1.55 1.55 1.58 1.67 1.55 1.58 1.68 1.74 1.89 2.09 2.18 2.04 1.91 1.82 1.76 1.64 1.49 1.31 1.19 1.12 1.09 1.07
4.03 4.01 3.85 3.59 3.43 3.43 3.33 3.25 3.06 2.89 2.65 2.44 2.36 2.11 1.75 1.52 1.47 1.37 1.35 1.35 1.34 1.37 1.41 1.45 1.46 1.42 1.41 1.48 1.47 1.58 1.75 1.94 2.00 2.03 2.02 1.91 1.78 1.64 1.48 1.34 1.26 1.22 1.16
4.30 4.26 4.26 4.15 3.89 3.70 3.49 3.26 3.15 3.01 2.68 2.46 2.42 2.36 2.03 1.69 1.38 1.15 1.07 1.07 1.09 1.18 1.21 1.20 1.23 1.28 1.30 1.37 1.45 1.59 1.66 1.73 1.83 1.89 1.86 1.81 1.77 1.74 1.70 1.60 1.49 1.42 1.33
4.59 4.44 4.28 4.03 3.81 3.66 3.54 3.33 3.10 2.98 2.74 2.51 2.38 2.44 2.27 1.98 1.57 1.28 1.07 0.99 0.95 0.98 1.03 1.06 1.09 1.13 1.15 1.22 1.29 1.47 1.58 1.60 1.67 1.70 1.73 1.72 1.69 1.67 1.69 1.68 1.65 1.61 1.56
4.21 3.96 3.81 3.69 3.51 3.22 3.00 2.86 2.71 2.52 2.39 2.26 2.18 2.06 1.94 1.81 1.78 1.64 1.42 1.24 1.16 1.15 1.13 1.06 1.05 1.11 1.13 1.20 1.38 1.48 1.50 1.51 1.63 1.64 1.61 1.62 1.64 1.67 1.70 1.71 1.70 1.72 1.74
3.61 3.35 3.21 3.01 2.77 2.45 2.14 2.03 2.06 2.09 2.05 1.98 1.95 1.91 1.88 1.75 1.67 1.65 1.62 1.47 1.38 1.31 1.28 1.29 1.27 1.24 1.22 1.23 1.31 1.49 1.47 1.34 1.41 1.48 1.55 1.59 1.61 1.62 1.65 1.67 1.67 1.65 1.66
3.05 2.68 2.36 2.06 1.84 1.68 1.49 1.43 1.46 1.53 1.68 1.74 1.80 1.80 1.75 1.70 1.69 1.70 1.65 1.58 1.52 1.43 1.32 1.29 1.29 1.28 1.25 1.24 1.29 1.43 1.26 1.19 1.15 1.18 1.27 1.34 1.36 1.37 1.42 1.50 1.57 1.63 1.72
2.33 2.05 1.79 1.60 1.45 1.35 1.26 1.18 1.15 1.17 1.26 1.39 1.49 1.56 1.63 1.65 1.61 1.65 1.75 1.76 1.63 1.52 1.41 1.34 1.28 1.25 1.25 1.24 1.26 1.32 1.18 1.11 1.04 1.00 0.99 1.02 1.04 1.08 1.16 1.27 1.34 1.40 1.46
1.72 1.45 1.24 1.10 1.02 1.00 0.98 0.97 0.97 0.99 1.03 1.11 1.21 1.31 1.40 1.45 1.46 1.45 1.48 1.54 1.62 1.59 1.44 1.34 1.25 1.16 1.09 1.00 1.04 1.03 0.92 0.97 0.89 0.85 0.83 0.82 0.82 0.82 0.84 0.85 0.87 0.89 0.90
1.10 0.95 0.83 0.77 0.71 0.70 0.70 0.70 0.71 0.76 0.84 0.90 0.93 0.99 1.09 1.15 1.19 1.21 1.26 1.30 1.39 1.45 1.36 1.18 1.11 1.04 0.89 0.77 0.82 0.66 0.64 0.71 0.65 0.60 0.59 0.59 0.60 0.61 0.60 0.62 0.63 0.66 0.66
0.76 0.67 0.59 0.54 0.50 0.47 0.45 0.46 0.49 0.52 0.57 0.65 0.69 0.74 0.83 0.89 0.96 1.00 1.07 1.13 1.13 1.16 1.18 1.03 0.89 0.82 0.72 0.62 0.65 0.51 0.50 0.54 0.48 0.46 0.47 0.49 0.52 0.55 0.55 0.54 0.54 0.54 0.57
0.53 0.45 0.39 0.36 0.35 0.33 0.33 0.37 0.42 0.46 0.49 0.51 0.53 0.55 0.59 0.63 0.70 0.74 0.75 0.79 0.86 0.89 0.92 0.87 0.76 0.68 0.62 0.58 0.57 0.53 0.50 0.47 0.43 0.46 0.44 0.45 0.46 0.47 0.48 0.47 0.47 0.49 0.52
0.39 0.34 0.30 0.29 0.29 0.30 0.28 0.29 0.31 0.37 0.43 0.44 0.42 0.44 0.45 0.47 0.54 0.57 0.60 0.63 0.70 0.77 0.80 0.83 0.78 0.69 0.64 0.59 0.56 0.56 0.44 0.37 0.36 0.41 0.38 0.35 0.35 0.36 0.37 0.37 0.36 0.35 0.36
0.35 0.31 0.29 0.28 0.26 0.24 0.24 0.24 0.25 0.30 0.37 0.40 0.38 0.39 0.39 0.40 0.41 0.40 0.45 0.51 0.58 0.67 0.77 0.79 0.75 0.66 0.60 0.53 0.53 0.47 0.42 0.47 0.35 0.34 0.31 0.27 0.27 0.26 0.27 0.25 0.25 0.24 0.22
0.26 0.25 0.24 0.24 0.23 0.21 0.21 0.22 0.22 0.26 0.31 0.34 0.31 0.30 0.30 0.30 0.32 0.36 0.37 0.45 0.54 0.67 0.75 0.74 0.66 0.57 0.54 0.50 0.54 0.52 0.48 0.48 0.40 0.28 0.27 0.23 0.24 0.22 0.22 0.22 0.20 0.19 0.17
0.24 0.20 0.17 0.18 0.15 0.14 0.14 0.16 0.20 0.23 0.27 0.28 0.26 0.25 0.22 0.21 0.24 0.29 0.32 0.39 0.51 0.65 0.69 0.68 0.63 0.57 0.53 0.54 0.53 0.49 0.51 0.46 0.39 0.29 0.31 0.28 0.29 0.34 0.37 0.32 0.26 0.22 0.17
0.19 0.16 0.15 0.17 0.15 0.12 0.14 0.15 0.15 0.19 0.24 0.27 0.26 0.23 0.20 0.17 0.18 0.23 0.28 0.35 0.44 0.54 0.61 0.66 0.63 0.61 0.57 0.55 0.57 0.55 0.57 0.55 0.51 0.36 0.38 0.33 0.29 0.40 0.44 0.41 0.35 0.24 0.17
0.23 0.22 0.22 0.22 0.24 0.19 0.13 0.12 0.12 0.17 0.22 0.24 0.25 0.25 0.21 0.18 0.22 0.27 0.27 0.27 0.30 0.32 0.43 0.60 0.67 0.65 0.65 0.67 0.73 0.70 0.67 0.65 0.61 0.46 0.53 0.52 0.40 0.46 0.37 0.35 0.39 0.32 0.25
0.28 0.27 0.28 0.28 0.29 0.21 0.13 0.09 0.10 0.18 0.22 0.20 0.20 0.23 0.29 0.28 0.24 0.24 0.24 0.28 0.33 0.36 0.40 0.48 0.63 0.65 0.61 0.64 0.71 0.74 0.72 0.70 0.65 0.60 0.64 0.67 0.48 0.46 0.39 0.56 0.57 0.49 0.38
0.30 0.30 0.32 0.36 0.35 0.25 0.14 0.11 0.14 0.21 0.23 0.20 0.17 0.17 0.18 0.20 0.19 0.21 0.27 0.39 0.43 0.46 0.37 0.45 0.56 0.61 0.62 0.65 0.66 0.69 0.79 0.85 0.80 0.68 0.61 0.66 0.59 0.50 0.52 0.71 0.68 0.67 0.56
0.30 0.26 0.31 0.39 0.35 0.25 0.15 0.13 0.17 0.22 0.26 0.26 0.25 0.24 0.18 0.15 0.18 0.20 0.26 0.38 0.47 0.48 0.52 0.72 0.85 0.84 0.79 0.76 0.70 0.75 0.85 0.87 0.87 0.85 0.67 0.66 0.73 0.65 0.68 0.76 0.82 0.76 0.70